Erie, PA

11:33 AM EST on December 12, 2019 (GMT -0500)
Erie International

Weather History for KERI - October, 2019

Change the Weather History Date:

Friday, October 25, 2019

  Actual Average Record
Temperature  
Mean Temperature 52 °F 50 °F  
Max Temperature 55 °F 58 °F 81 °F (2012)
Min Temperature 48 °F 43 °F 30 °F (2002)
Degree Days  
Heating Degree Days 13 15  
Month to date heating degree days 202 285  
Since 1 July heating degree days 214 409  
Cooling Degree Days 0 0  
Month to date cooling degree days 22 7  
Year to date cooling degree days 847 636  
Growing Degree Days 2 (Base 50)    
Moisture  
Dew Point 43 °F    
Average Humidity 73    
Maximum Humidity 80    
Minimum Humidity 66    
Precipitation  
Precipitation T in 0.11 in 1.18 in (1980)
Month to date precipitation 1.82 3.31  
Year to date precipitation 31.45 33.75  
Snow  
Snow 0.00 in 0.00 in - ()
Month to date snowfall 0.0 0.1  
Since 1 July snowfall 0.0 0.1  
Since 1 September snowfall 0.0 0.1  
Snow Depth 0.00 in    
Sea Level Pressure  
Sea Level Pressure 30.27 in    
Wind  
Wind Speed 4 mph ()    
Max Wind Speed 9 mph    
Max Gust Speed 11 mph    
Visibility 10.0 miles    
Events      
T = Trace of Precipitation, MM = Missing Value Source: Averaged Metar Reports

Daily Weather History Graph

Daily Weather History Graph

Search for Another Location

Airport or City:

Astronomy

Oct. 25, 2019 Rise Set
Actual Time 7:44 AM EDT 6:24 PM EDT
Civil Twilight 7:16 AM EDT 6:52 PM EDT
Nautical Twilight 6:43 AM EDT 7:25 PM EDT
Astronomical Twilight 6:10 AM EDT 7:57 PM EDT
Moon 4:20 AM EDT (10/25) 5:29 PM EDT (10/25)
Length of Visible Light 11h 36m
Length of Day
10h 39m
Waning Crescent, 9% of the Moon is Illuminated
Oct 25
Waning Crescent
Oct 27
New
Nov 4
First Quarter
Nov 12
Full
Nov 19
Last Quarter

Hourly Weather History & Observations

Time (EDT) Temp. Dew Point Humidity Pressure Visibility Wind Dir Wind Speed Gust Speed Precip Events Conditions
12:51 AM 51.1 °F 41.0 °F 68% 30.31 in 10.0 mi NE 6.9 mph - N/A   Partly Cloudy
1:51 AM 50.0 °F 41.0 °F 71% 30.31 in 10.0 mi ENE 4.6 mph - N/A   Overcast
3:51 AM 50.0 °F 41.0 °F 71% 30.32 in 10.0 mi ENE 8.1 mph - N/A   Overcast
4:51 AM 50.0 °F 41.0 °F 71% 30.30 in 10.0 mi ENE 5.8 mph - N/A   Overcast
5:51 AM 48.9 °F 41.0 °F 74% 30.31 in 10.0 mi NE 4.6 mph - N/A   Overcast
6:51 AM 48.9 °F 42.1 °F 77% 30.32 in 10.0 mi ENE 4.6 mph - 0.00 in   Overcast
7:51 AM 48.0 °F 42.1 °F 80% 30.33 in 10.0 mi SE 3.5 mph - 0.00 in   Overcast
8:51 AM 48.9 °F 41.0 °F 74% 30.29 in 10.0 mi SE 6.9 mph - N/A   Overcast
9:51 AM 50.0 °F 42.1 °F 74% 30.28 in 10.0 mi Calm Calm - N/A   Overcast
10:51 AM 52.0 °F 43.0 °F 71% 30.28 in 10.0 mi Calm Calm - N/A   Clear
11:51 AM 55.0 °F 44.1 °F 67% 30.27 in 10.0 mi Calm Calm - N/A   Clear
12:51 PM 54.0 °F 44.1 °F 69% 30.26 in 10.0 mi WNW 6.9 mph - N/A   Partly Cloudy
1:51 PM 54.0 °F 43.0 °F 66% 30.25 in 10.0 mi NNE 5.8 mph - N/A   Overcast
2:51 PM 54.0 °F 44.1 °F 69% 30.24 in 10.0 mi NE 6.9 mph - N/A   Overcast
3:51 PM 53.1 °F 45.0 °F 74% 30.23 in 10.0 mi NE 5.8 mph - N/A   Overcast
4:51 PM 53.1 °F 43.0 °F 69% 30.23 in 10.0 mi NE 3.5 mph - N/A   Overcast
5:51 PM 52.0 °F 44.1 °F 74% 30.22 in 10.0 mi East 3.5 mph - N/A   Overcast
6:51 PM 52.0 °F 44.1 °F 74% 30.22 in 10.0 mi Calm Calm - N/A   Overcast
7:51 PM 52.0 °F 44.1 °F 74% 30.22 in 10.0 mi SE 4.6 mph - N/A   Overcast
8:51 PM 52.0 °F 44.1 °F 74% 30.22 in 10.0 mi South 5.8 mph - N/A   Overcast
9:51 PM 51.1 °F 44.1 °F 77% 30.22 in 10.0 mi SSW 4.6 mph - N/A   Scattered Clouds
10:51 PM 50.0 °F 44.1 °F 80% 30.23 in 10.0 mi SSW 8.1 mph - N/A   Clear
11:51 PM 51.1 °F 45.0 °F 80% 30.24 in 10.0 mi Calm Calm - N/A   Overcast